Powrót do katalogu

FENGYUN 1C DEB

AktywnySSO
NORAD 35171·DEBRIS·🇨🇳 China

Wystrzelony May 10, 1999 z Taiyuan Satellite Launch Center

Loading…

Następne Przeloty (najbliższe 24 godziny)

TLE

ŚwieżeSource: Space-Track

Epoka: Sep 14, 2026, 21:06 UTC

1 35171U 99025DNB 26257.87984598  .00001471  00000-0  10210-2 0  9991
2 35171  99.0264  48.4133 0135116 281.4592  77.1422 13.96185278924109

Śledź FENGYUN 1C DEB w czasie rzeczywistym z AllMySat

Download on the App Store